Find Starlink 30558

NORAD ID: 58060 Int'l Des: 2023-158 Owner: SPXS Country: US Constellation: starlink operational
LEOCIRCULAR

Current View

Loading 3D Globe...

About Starlink 30558

Starlink 30558 (NORAD 58060) is a starlink constellation satellite (v2 mini) launched Oct 13, 2023 by SPXS of US. It operates in LEO, CIRCULAR orbit with a mass of 730.00 kg.

Upcoming Passes

Passes for default location (London). Set your location on the main map for personalized predictions.

Altitude History

Loading altitude history...

Two-Line Element Set

1 58060U 23158K 26235.14167376 .00001080 00000-0 48772-4 0 9992
2 58060 43.0049 167.2640 0001149 268.4519 91.6201 15.27576408159028
Epoch: Aug 23, 2026 • Age: 21 hours

Current Status

Altitude 486.3 km
Apogee / Perigee N/A
Velocity 7.63 km/s
Sub-Earth Point 39.89°N, 57.19°W
Launch Date Oct 13, 2023
Age 2.8 years
Type internet

Technical Details

Classification Payload
Mass 730.00 kg
Dry Mass 700.00 kg
Total Mass 730.00 kg
Length 0.30 m
Diameter 4.10 m
Span 29.00 m
Shape Box + pan
Manufacturer SPXS
Bus Type Starlink V2M
Phase Status In Orbit
Owner/State SPXS/US

Most Searched